User: anonymous   Login
Location: Unspecified
(0.0000°N, 0.0000°E)
Time: 18:54:06
(UTC+00:00)
Language:

HORYU 4 - Orbit

View from above orbital plane
View from above orbital plane
View from above satellite
View from above satellite

Ground track
Ground track

The orbit data is extracted from the following two-line orbital elements,

1 41340U 16012D   19340.70762264  .00000344  00000-0  19399-4 0  9999
2 41340  31.0041 125.5031 0013944  24.9975 335.1334 15.01371042208733
Epoch (UTC): 06 December 2019 16:58:58
Eccentricity: 0.0013944
inclination: 31.0041°
perigee height: 553 km
apogee height: 572 km
right ascension of ascending node: 125.5031°
argument of perigee: 24.9975°
revolutions per day: 15.01371042
mean anomaly at epoch: 335.1334°
orbit number at epoch: 20873

The dashed part of the orbit path shows where the satellite is in the earth's shadow,  

DLR